User: anonymous   Login
Location: Churchill
(58.7670°N, 94.1670°W)
Time: 10:58:42
(UTC-06:00)
Language:

Cosmos 1315 Rocket - Orbit

View from above orbital plane
View from above orbital plane
View from above satellite
View from above satellite

Ground track
Ground track

The orbit data is extracted from the following two-line orbital elements,

1 12904U 81103B   18016.14773302 -.00000217  00000-0 -16666-4 0  9993
2 12904  81.1759  32.3271 0029693  85.2048 275.2564 15.05434800524869
Epoch (UTC): 16 January 2018 03:32:44
Eccentricity: 0.0029693
inclination: 81.1759°
perigee height: 529 km
apogee height: 571 km
right ascension of ascending node: 32.3271°
argument of perigee: 85.2048°
revolutions per day: 15.05434800
mean anomaly at epoch: 275.2564°
orbit number at epoch: 52486

The dashed part of the orbit path shows where the satellite is in the earth's shadow,  

DLR